| time (UTC) | temp C | wind direction | speed KPH | gust KPH | rain 1hr cm | rain 24hr cm | rain mn cm | humidity % | barometer mb |
| 20260506010029 | 8 | 127 | 1.6 | 11.3 | 0.00 | 0.00 | 0.00 | 76 | 1016.5 |
| 20260506004530 | 8 | 126 | 1.6 | 8.0 | 0.00 | 0.00 | 0.00 | 77 | 1016.4 |
| 20260506003035 | 8 | 75 | 3.2 | 8.0 | 0.00 | 0.00 | 0.00 | 77 | 1016.5 |
| 20260506001530 | 8 | 109 | 3.2 | 8.0 | 0.00 | 0.00 | 0.00 | 76 | 1016.5 |
| 20260506000038 | 8 | 74 | 4.8 | 12.9 | 0.00 | 0.00 | 0.00 | 77 | 1016.5 |
| 20260505234549 | 8 | 101 | 3.2 | 11.3 | 0.00 | 0.00 | 0.00 | 76 | 1016.4 |
| 20260505233038 | 8 | 56 | 3.2 | 9.7 | 0.00 | 0.00 | 0.00 | 75 | 1016.5 |
| 20260505231531 | 8 | 79 | 3.2 | 9.7 | 0.00 | 0.00 | 0.00 | 75 | 1016.5 |
| 20260505230042 | 8 | 70 | 3.2 | 9.7 | 0.00 | 0.00 | 0.00 | 75 | 1016.5 |
| 20260505224543 | 9 | 30 | 3.2 | 9.7 | 0.00 | 0.00 | 0.00 | 78 | 1016.6 |
| 20260505223108 | 9 | 112 | 4.8 | 8.0 | 0.00 | 0.00 | 0.00 | 80 | 1016.6 |
| 20260505221500 | 8 | 124 | 1.6 | 6.4 | 0.00 | 0.00 | 0.00 | 82 | 1016.6 |
| 20260505220050 | 8 | 152 | 0.0 | 1.6 | 0.00 | 0.00 | 0.00 | 83 | 1016.4 |
| 20260505214554 | 8 | 148 | 0.0 | 1.6 | 0.00 | 0.00 | 0.00 | 82 | 1016.4 |
| 20260505213053 | 8 | 132 | 1.6 | 3.2 | 0.00 | 0.00 | 0.00 | 80 | 1016.3 |
| 20260505211612 | 10 | 186 | 0.0 | 3.2 | 0.00 | 0.00 | 0.00 | 78 | 1016.2 |
| 20260505210051 | 10 | 323 | 0.0 | 1.6 | 0.00 | 0.00 | 0.00 | 79 | 1016.2 |
| 20260505204555 | 10 | 323 | 0.0 | 1.6 | 0.00 | 0.00 | 0.00 | 78 | 1016.1 |
| 20260505203006 | 10 | 290 | 0.0 | 3.2 | 0.00 | 0.00 | 0.00 | 78 | 1016.3 |
| 20260505201510 | 10 | 330 | 0.0 | 4.8 | 0.00 | 0.00 | 0.00 | 77 | 1016.3 |
| 20260505200005 | 10 | 295 | 0.0 | 4.8 | 0.00 | 0.00 | 0.00 | 76 | 1016.3 |
| 20260505194602 | 10 | 263 | 0.0 | 6.4 | 0.00 | 0.00 | 0.00 | 76 | 1016.3 |
| 20260505193006 | 10 | 342 | 0.0 | 6.4 | 0.00 | 0.00 | 0.00 | 75 | 1016.1 |
| 20260505191518 | 11 | 265 | 3.2 | 6.4 | 0.00 | 0.00 | 0.00 | 73 | 1016.0 |
| 20260505190014 | 11 | 283 | 0.0 | 9.7 | 0.00 | 0.00 | 0.00 | 72 | 1015.9 |
| 20260505184527 | 12 | 355 | 1.6 | 9.7 | 0.00 | 0.00 | 0.00 | 70 | 1015.9 |
| 20260505183014 | 12 | 311 | 1.6 | 9.7 | 0.00 | 0.00 | 0.00 | 73 | 1015.9 |
| 20260505181509 | 12 | 275 | 1.6 | 9.7 | 0.00 | 0.00 | 0.00 | 71 | 1015.9 |
| 20260505180020 | 12 | 312 | 1.6 | 11.3 | 0.00 | 0.00 | 0.00 | 71 | 1015.8 |
| 20260505174515 | 12 | 258 | 1.6 | 12.9 | 0.00 | 0.00 | 0.00 | 70 | 1015.9 |
| 20260505173008 | 12 | 268 | 3.2 | 12.9 | 0.00 | 0.00 | 0.00 | 72 | 1015.9 |
| 20260505171521 | 12 | 321 | 3.2 | 12.9 | 0.00 | 0.00 | 0.00 | 70 | 1016.0 |
| 20260505170037 | 12 | 316 | 3.2 | 12.9 | 0.00 | 0.00 | 0.00 | 72 | 1016.0 |
| 20260505164533 | 12 | 349 | 4.8 | 11.3 | 0.00 | 0.00 | 0.00 | 70 | 1016.1 |
| 20260505163041 | 12 | 289 | 3.2 | 12.9 | 0.00 | 0.00 | 0.00 | 70 | 1016.1 |
| 20260505161547 | 13 | 330 | 4.8 | 12.9 | 0.00 | 0.00 | 0.00 | 68 | 1016.1 |
| 20260505153048 | 12 | 286 | 4.8 | 11.3 | 0.00 | 0.00 | 0.00 | 72 | 1016.1 |
| 20260505151547 | 12 | 319 | 3.2 | 8.0 | 0.00 | 0.00 | 0.00 | 71 | 1016.0 |
| 20260505124521 | 12 | 25 | 4.8 | 14.5 | 0.00 | 0.00 | 0.00 | 69 | 1016.1 |
| 20260505123017 | 12 | 356 | 3.2 | 12.9 | 0.00 | 0.00 | 0.00 | 72 | 1016.0 |
| 20260505121510 | 12 | 276 | 4.8 | 11.3 | 0.00 | 0.00 | 0.00 | 74 | 1016.2 |
| 20260505120026 | 11 | 63 | 6.4 | 24.1 | 0.00 | 0.00 | 0.00 | 76 | 1016.4 |
| 20260505114519 | 12 | 304 | 6.4 | 16.1 | 0.00 | 0.00 | 0.00 | 75 | 1016.4 |
| 20260505113011 | 12 | 314 | 6.4 | 16.1 | 0.00 | 0.00 | 0.00 | 73 | 1016.3 |
| 20260505111539 | 11 | 326 | 4.8 | 16.1 | 0.00 | 0.00 | 0.00 | 73 | 1016.4 |
| 20260505101537 | 10 | 316 | 4.8 | 11.3 | 0.00 | 0.00 | 0.00 | 82 | 1016.4 |
| 20260505100040 | 10 | 290 | 4.8 | 14.5 | 0.00 | 0.00 | 0.00 | 85 | 1016.3 |
| 20260505094534 | 11 | 359 | 6.4 | 14.5 | 0.00 | 0.00 | 0.00 | 82 | 1016.4 |
| 20260505093050 | 11 | 264 | 3.2 | 14.5 | 0.00 | 0.00 | 0.00 | 81 | 1016.3 |
| 20260505091543 | 11 | 350 | 6.4 | 14.5 | 0.00 | 0.00 | 0.00 | 82 | 1016.2 |
| 20260505090039 | 11 | 338 | 3.2 | 8.0 | 0.00 | 0.00 | 0.00 | 83 | 1016.2 |
| 20260505084544 | 10 | 309 | 3.2 | 8.0 | 0.00 | 0.00 | 0.00 | 84 | 1016.2 |
| 20260505083050 | 10 | 321 | 4.8 | 9.7 | 0.00 | 0.00 | 0.00 | 84 | 1016.1 |
| 20260505081546 | 10 | 321 | 3.2 | 9.7 | 0.00 | 0.00 | 0.00 | 85 | 1016.3 |
| 20260505080043 | 10 | 333 | 3.2 | 11.3 | 0.00 | 0.00 | 0.00 | 87 | 1016.3 |
| 20260505074542 | 9 | 8 | 3.2 | 9.7 | 0.00 | 0.00 | 0.00 | 89 | 1016.3 |
| 20260505073050 | 8 | 36 | 3.2 | 9.7 | 0.00 | 0.00 | 0.00 | 91 | 1016.3 |
| 20260505071551 | 7 | 169 | 0.0 | 3.2 | 0.00 | 0.00 | 0.00 | 92 | 1016.3 |
| 20260505070105 | 7 | 209 | 0.0 | 6.4 | 0.00 | 0.00 | 0.00 | 91 | 1016.2 |
| 20260505064555 | 7 | 214 | 3.2 | 8.0 | 0.00 | 0.00 | 0.00 | 91 | 1016.3 |